[TLELIST] Archives

 

Current TLEs

May 16th 2008 PDT

HST 1 20580U 90037B 08137.21511842 .00000270 00000-0 80121-5 0 1377 2 20580 028.4686 171.7549 0003661 045.4683 314.6204 15.00377714790170 ISS (ZARYA) 1 25544U 98067A 08136.53613860 .00008666 00000-0 57874-4 0 4828 2 25544 051.6418 184.6908 0006031 208.8986 294.3349 15.76292617543376 CXO 1 25867U 99040B 08135.83333333 +.00000404 +00000-0 +10000-3 0 01978 2 25867 063.6147 081.3128 6773991 279.3003 357.3166 00.37805960003503 ____________________________________________________________________ These 2-Line ...Continue Reading

Current TLEs

May 15th 2008 PDT

HST 1 20580U 90037B 08135.55213865 .00000301 00000-0 10436-4 0 1361 2 20580 028.4685 182.5992 0003686 027.3104 332.7678 15.00377518789924 ISS (ZARYA) 1 25544U 98067A 08135.52130163 .00009218 00000-0 61342-4 0 4768 2 25544 051.6397 189.9219 0006022 205.7616 294.7702 15.76275638543215 CXO 1 25867U 99040B 08127.91666667 .00000423 00000-0 10000-3 0 1945 2 25867 063.5912 081.5293 6757655 279.4669 359.3736 00.37798619 3478 ____________________________________________________________________ These 2-Line ...Continue Reading

Current TLEs

May 14th 2008 PDT

HST 1 20580U 90037B 08134.48783109 .00000320 00000-0 11889-4 0 1358 2 20580 028.4687 189.5397 0003667 015.4242 344.6459 15.00377360789768 ISS (ZARYA) 1 25544U 98067A 08135.18870377 .00009326 00000-0 62027-4 0 4725 2 25544 051.6404 191.6349 0006036 203.9722 207.9363 15.76270024543168 CXO 1 25867U 99040B 08127.91666667 .00000423 00000-0 10000-3 0 1945 2 25867 063.5912 081.5293 6757655 279.4669 359.3736 00.37798619 3478 ____________________________________________________________________ These 2-Line ...Continue Reading

Current TLEs

May 13th 2008 PDT

HST 1 20580U 90037B 08133.22396530 .00000355 00000-0 14608-4 0 1346 2 20580 028.4691 197.7826 0003631 000.3531 359.7058 15.00377223789575 ISS (ZARYA) 1 25544U 98067A 08134.11661854 .00009851 00000-0 65334-4 0 4643 2 25544 051.6405 197.1584 0006193 200.1000 244.1211 15.76250765542998 CXO 1 25867U 99040B 08127.91666667 .00000423 00000-0 10000-3 0 1945 2 25867 063.5912 081.5293 6757655 279.4669 359.3736 00.37798619 3478 ____________________________________________________________________ These 2-Line ...Continue Reading

Current TLEs

May 12th 2008 PDT

HST 1 20580U 90037B 08133.22396530 .00000355 00000-0 14608-4 0 1346 2 20580 028.4691 197.7826 0003631 000.3531 359.7058 15.00377223789575 ISS (ZARYA) 1 25544U 98067A 08132.73261936 .00010955 00000-0 72258-4 0 4567 2 25544 051.6412 204.2888 0006414 193.9433 311.5467 15.76225570542772 CXO 1 25867U 99040B 08127.91666667 .00000423 00000-0 10000-3 0 1945 2 25867 063.5912 081.5293 6757655 279.4669 359.3736 00.37798619 3478 ____________________________________________________________________ These 2-Line ...Continue Reading

Current TLEs

May 11th 2008 PDT

HST 1 20580U 90037B 08131.62750338 .00000361 00000-0 15074-4 0 1332 2 20580 028.4693 208.1932 0003609 341.7658 018.2802 15.00376671789333 ISS (ZARYA) 1 25544U 98067A 08131.52526256 .00013077 00000-0 85516-4 0 4493 2 25544 051.6398 210.5080 0006288 187.4518 302.4475 15.76205275542587 CXO 1 25867U 99040B 08127.91666667 .00000423 00000-0 10000-3 0 1945 2 25867 063.5912 081.5293 6757655 279.4669 359.3736 00.37798619 3478 ____________________________________________________________________ These 2-Line ...Continue Reading

Current TLEs

May 10th 2008 PDT

HST 1 20580U 90037B 08130.56319537 .00000346 00000-0 13966-4 0 1326 2 20580 028.4695 215.1337 0003615 329.3236 030.7140 15.00376162789174 ISS (ZARYA) 1 25544U 98067A 08130.50420330 .00014761 00000-0 96063-4 0 4441 2 25544 051.6405 215.7665 0006659 183.8261 268.3941 15.76184096542427 CXO 1 25867U 99040B 08127.91666667 .00000423 00000-0 10000-3 0 1945 2 25867 063.5912 081.5293 6757655 279.4669 359.3736 00.37798619 3478 ____________________________________________________________________ These 2-Line ...Continue Reading

Current TLEs

May 9th 2008 PDT

HST 1 20580U 90037B 08128.63413735 .00000363 00000-0 15254-4 0 1305 2 20580 028.4697 227.7160 0003654 308.7901 051.2360 15.00375568788880 ISS (ZARYA) 1 25544U 98067A 08130.11977802 .00015853 00000-0 10288-3 0 4424 2 25544 051.6415 217.7476 0006531 184.9993 244.4439 15.76177762542365 CXO 1 25867U 99040B 08127.91666667 .00000423 00000-0 10000-3 0 1945 2 25867 063.5912 081.5293 6757655 279.4669 359.3736 00.37798619 3478 ____________________________________________________________________ These 2-Line ...Continue Reading

Current TLEs

May 8th 2008 PDT

HST 1 20580U 90037B 08128.63413735 .00000363 00000-0 15254-4 0 1305 2 20580 028.4697 227.7160 0003654 308.7901 051.2360 15.00375568788880 ISS (ZARYA) 1 25544U 98067A 08128.54347067 .00017179 00000-0 11135-3 0 4337 2 25544 051.6413 225.8681 0006638 178.6243 300.5860 15.76130244542116 CXO 1 25867U 99040B 08127.91666667 .00000423 00000-0 10000-3 0 1945 2 25867 063.5912 081.5293 6757655 279.4669 359.3736 00.37798619 3478 ____________________________________________________________________ These 2-Line ...Continue Reading

Current TLEs

May 7th 2008 PDT

HST 1 20580U 90037B 08127.50330980 .00000363 00000-0 15273-4 0 1299 2 20580 028.4697 235.0895 0003648 296.6025 063.4189 15.00375124788716 ISS (ZARYA) 1 25544U 98067A 08128.15662330 .00017398 00000-0 11278-3 0 4305 2 25544 051.6416 227.8607 0006626 177.7569 264.9852 15.76117536542053 CXO 1 25867U 99040B 08127.91666667 .00000423 00000-0 10000-3 0 1945 2 25867 063.5912 081.5293 6757655 279.4669 359.3736 00.37798619 3478 ____________________________________________________________________ These 2-Line ...Continue Reading
  • This mailing list is a public mailing list - anyone may join or leave, at any time.
  • This mailing list is announce-only.

International Space Station (ISS) / Hubble Space Telescope (HST) / Chandra X-Ray Observatory Orbital Data via EMAIL

Privacy Policy:

Private list